Temp
75 75 74 75 76 76 75 74 74 73 74 75 75 75 75 74 75 74 74 74 74 74 74 73 74 73 74 74 74 76 75 72 73 73 73 72 72 71 71 71 71 73
73 74 74 75 74 74 73 73 71 72 72 73 75 75 75 74 74 74 74 73 74 74 74 74 74 74 74 74 74 74 74 73 72 75 72 71 72 72 70 70 71 73
72 72 72 72 72 72 71 71 71 71 71 71 73 74 74 74 73 74 74 74 74 73 73 73 73 74 74 74 73 74 73 72 72 73 73 72 72 72 71 72 72 71
72 72 73 73 73 72 72 71 71 71 70 69 72 74 74 74 74 73 73 74 74 73 73 74 73 74 75 74 74 74 73 73 73 73 72 73 73 73 72 72 72 73
72 72 73 73 74 73 72 71 71 71 71 72 73 74 74 73 73 74 74 74 74 74 73 73 73 73 73 74 74 73 73 73 72 73 73 71 72 72 72 72 71 71
73 75 75 75 74 72 71 71 72 72 72 72 73 74 74 74 75 74 74 73 74 74 73 74 74 74 74 74 74 74 74 74 72 73 73 72 73 73 74 73 71 71
73 73 73 75 73 72 72 72 73 73 73 73 74 73 74 73 73 74 76 75 75 75 75 74 73 73 74 74 74 73 73 73 73 74 73 73 73 71 73 73 73 73
73 74 74 74 72 72 72 73 73 73 74 74 72 73 73 73 74 74 75 76 76 76 75 76 75 75 74 74 74 72 72 72 72 73 72 73 72 72 72 72 71 72
73 73 74 73 72 73 73 74 74 74 75 74 74 74 75 74 73 74 75 76 76 76 76 76 76 75 74 74 73 73 73 72 72 72 72 71 71 72 74 74 71 71
73 73 73 73 72 73 73 74 74 74 75 75 75 74 74 74 75 76 76 76 75 76 76 76 75 74 74 74 74 74 73 73 73 72 72 72 72 73 74 73 72 71
72 73 72 72 72 74 73 74 74 74 75 76 75 75 76 75 76 77 75 76 74 75 75 76 76 76 75 74 73 73 73 72 73 73 72 72 72 72 69 72 71 70
71 72 72 72 72 73 73 74 74 75 75 75 76 75 74 74 75 75 75 76 76 76 75 75 75 74 74 75 75 74 73 72 72 72 72 73 73 72 73 73 71 72
70 70 70 70 71 68 72 74 74 74 75 75 75 75 74 73 74 74 74 75 77 76 75 74 74 73 73 73 74 74 73 72 71 71 71 72 72 73 73 73 72 73
69 70 67 67 70 72 71 72 73 73 74 75 75 74 74 75 74 73 74 75 76 76 75 75 73 73 74 73 74 74 72 72 71 70 70 71 71 72 71 71 71 71
69 69 68 69 70 71 68 71 73 74 74 74 73 72 72 74 74 74 73 74 74 73 73 73 72 71 73 73 73 72 72 71 70 70 70 70 70 71 69 68 69 69
70 70 70 69 69 68 69 71 72 72 72 71 71 71 69 68 71 73 73 73 72 72 71 70 70 70 56 47 50 68 71 71 69 70 70 71 70 69 68 68 69 69
71 70 70 69 69 71 71 71 72 71 70 68 68 69 67 68 68 72 72 72 72 71 70 70 68 60 42 43 44 44 63 70 70 70 71 70 70 69 69 69 69 70
70 70 70 69 70 70 70 71 71 70 70 71 70 68 68 70 70 69 69 69 70 70 69 68 64 45 41 41 41 41 47 65 71 71 70 71 71 71 71 70 70 71
71 70 70 69 68 69 67 66 68 69 69 67 67 68 67 67 68 67 67 69 69 69 69 69 65 40 39 39 40 41 43 52 71 70 70 70 70 70 71 71 71 71
72 71 70 70 69 69 68 68 68 68 67 67 66 65 66 66 68 68 69 70 70 70 69 69 66 43 38 37 39 39 41 47 71 67 68 69 68 69 69 69 69 70
73 73 72 71 72 71 71 71 69 69 68 68 68 67 67 67 68 69 69 70 70 70 70 66 61 37 40 38 39 39 40 46 69 66 68 68 68 68 68 68 69 69
73 72 72 72 72 72 71 71 70 70 70 70 70 71 71 71 70 70 69 69 70 70 69 66 57 37 39 40 39 42 39 63 69 69 68 69 68 67 68 69 69 69
73 72 71 72 72 71 71 70 70 70 70 72 70 70 70 70 70 70 70 70 69 70 68 67 62 44 38 38 40 39 46 71 69 71 69 67 67 67 68 66 64 65
72 73 71 71 71 71 70 69 70 71 71 71 71 70 70 70 70 70 70 70 69 69 70 67 66 48 38 41 40 39 46 66 71 69 67 67 66 66 67 64 57 44
71 72 71 70 70 70 69 69 69 68 70 71 71 71 70 71 71 70 69 69 69 68 56 64 66 53 38 40 38 39 49 69 70 70 67 66 67 65 65 64 60 51
69 69 69 70 71 70 69 69 69 67 67 68 69 71 70 70 70 70 68 68 68 67 65 67 66 64 52 37 43 42 39 60 71 69 66 65 67 66 64 63 61 58
MSLP
1017.37 1017.65 1017.97 1018.05 1018.09 1018.29 1018.53 1018.77 1018.89 1019.09 1019.17 1019.29 1019.57 1019.81 1020.05 1020.29 1020.37 1020.45 1020.49 1020.49 1020.61 1020.69 1020.81 1020.85 1020.85 1020.89 1020.85 1020.85 1020.85 1020.73 1020.89 1021.17 1021.13 1021.13 1021.17 1021.13 1021.21 1021.21 1021.21 1021.17 1021.09 1020.89
1017.57 1017.81 1017.97 1018.09 1018.29 1018.49 1018.69 1018.81 1019.05 1019.13 1019.29 1019.33 1019.45 1019.73 1020.05 1020.33 1020.49 1020.49 1020.61 1020.69 1020.69 1020.85 1020.85 1020.93 1020.93 1020.97 1020.93 1020.97 1021.09 1021.09 1021.17 1021.29 1021.37 1021.21 1021.37 1021.37 1021.21 1021.25 1021.41 1021.37 1021.21 1021.05
1017.69 1017.97 1018.17 1018.37 1018.53 1018.73 1018.93 1019.05 1019.17 1019.29 1019.49 1019.61 1019.57 1019.73 1020.13 1020.33 1020.49 1020.53 1020.61 1020.65 1020.77 1020.89 1020.97 1020.97 1021.05 1021.09 1021.13 1021.17 1021.21 1021.25 1021.41 1021.53 1021.57 1021.49 1021.49 1021.53 1021.45 1021.41 1021.41 1021.33 1021.37 1021.33
1017.69 1017.93 1018.13 1018.25 1018.41 1018.69 1018.89 1019.05 1019.25 1019.45 1019.69 1019.93 1019.73 1019.73 1020.01 1020.25 1020.37 1020.57 1020.61 1020.65 1020.73 1020.85 1020.93 1021.01 1021.09 1021.13 1021.13 1021.25 1021.25 1021.37 1021.53 1021.53 1021.65 1021.69 1021.69 1021.61 1021.53 1021.53 1021.49 1021.41 1021.45 1021.33
1017.65 1017.89 1018.05 1018.17 1018.29 1018.57 1018.81 1019.05 1019.29 1019.45 1019.69 1019.81 1019.65 1019.69 1019.89 1020.17 1020.37 1020.49 1020.57 1020.65 1020.69 1020.81 1020.93 1021.05 1021.09 1021.21 1021.25 1021.25 1021.25 1021.45 1021.53 1021.65 1021.73 1021.65 1021.69 1021.85 1021.77 1021.77 1021.73 1021.61 1021.69 1021.69
1017.49 1017.65 1017.81 1018.01 1018.25 1018.53 1018.89 1019.09 1019.17 1019.33 1019.49 1019.65 1019.65 1019.61 1019.81 1020.01 1020.17 1020.37 1020.49 1020.61 1020.61 1020.73 1020.85 1020.89 1021.05 1021.13 1021.09 1021.21 1021.21 1021.29 1021.33 1021.45 1021.73 1021.69 1021.69 1021.77 1021.77 1021.73 1021.69 1021.77 1021.89 1021.85
1017.49 1017.57 1017.77 1017.85 1018.17 1018.45 1018.77 1018.93 1018.97 1019.09 1019.25 1019.33 1019.53 1019.73 1019.81 1019.97 1020.09 1020.21 1020.29 1020.37 1020.45 1020.53 1020.61 1020.77 1020.93 1021.05 1021.05 1021.09 1021.13 1021.33 1021.41 1021.53 1021.61 1021.61 1021.61 1021.61 1021.73 1021.93 1021.81 1021.77 1021.77 1021.85
1017.45 1017.49 1017.65 1017.77 1018.17 1018.45 1018.69 1018.81 1018.93 1019.01 1019.05 1019.21 1019.53 1019.69 1019.77 1019.93 1020.01 1020.05 1020.17 1020.17 1020.17 1020.29 1020.45 1020.53 1020.61 1020.77 1020.89 1020.93 1021.09 1021.33 1021.57 1021.61 1021.61 1021.61 1021.65 1021.73 1021.77 1021.73 1021.85 1021.93 1022.05 1021.93
1017.37 1017.49 1017.61 1017.81 1018.09 1018.25 1018.49 1018.61 1018.81 1018.89 1018.93 1019.13 1019.33 1019.53 1019.61 1019.77 1019.85 1019.93 1019.93 1019.97 1020.05 1020.13 1020.17 1020.33 1020.41 1020.57 1020.69 1020.85 1021.09 1021.21 1021.33 1021.53 1021.57 1021.61 1021.73 1021.77 1021.81 1021.81 1021.61 1021.73 1022.05 1022.13
1017.37 1017.41 1017.57 1017.73 1017.97 1018.13 1018.29 1018.41 1018.61 1018.81 1018.85 1018.93 1019.05 1019.29 1019.49 1019.53 1019.61 1019.61 1019.69 1019.81 1019.93 1019.93 1019.97 1020.09 1020.25 1020.41 1020.57 1020.69 1020.81 1021.01 1021.21 1021.29 1021.41 1021.49 1021.61 1021.69 1021.73 1021.73 1021.69 1021.81 1021.93 1022.09
1017.25 1017.37 1017.53 1017.69 1017.89 1017.97 1018.13 1018.21 1018.41 1018.57 1018.65 1018.73 1018.89 1019.09 1019.17 1019.33 1019.41 1019.41 1019.65 1019.73 1019.85 1019.81 1019.81 1019.81 1019.89 1020.05 1020.25 1020.53 1020.69 1020.85 1021.01 1021.17 1021.25 1021.25 1021.41 1021.49 1021.61 1021.69 1021.89 1021.89 1022.01 1022.21
1017.29 1017.37 1017.53 1017.77 1017.93 1018.01 1018.09 1018.09 1018.17 1018.33 1018.53 1018.61 1018.77 1018.97 1019.17 1019.21 1019.25 1019.37 1019.53 1019.61 1019.73 1019.81 1019.93 1019.97 1019.93 1020.01 1020.13 1020.25 1020.37 1020.57 1020.77 1020.97 1021.09 1021.21 1021.29 1021.33 1021.45 1021.57 1021.57 1021.69 1021.93 1022.01
1017.41 1017.61 1017.85 1018.13 1018.29 1018.73 1018.25 1018.05 1018.17 1018.25 1018.45 1018.65 1018.69 1018.81 1019.09 1019.25 1019.25 1019.33 1019.41 1019.45 1019.45 1019.53 1019.77 1019.89 1019.97 1020.09 1020.17 1020.29 1020.37 1020.45 1020.61 1020.81 1020.97 1021.09 1021.21 1021.29 1021.37 1021.37 1021.45 1021.57 1021.69 1021.73
1017.49 1017.61 1017.93 1017.93 1017.85 1017.97 1018.29 1018.21 1018.13 1018.33 1018.41 1018.53 1018.65 1018.81 1018.97 1019.01 1019.13 1019.21 1019.29 1019.33 1019.41 1019.53 1019.61 1019.77 1019.93 1020.01 1020.05 1020.17 1020.21 1020.33 1020.53 1020.73 1020.81 1021.05 1021.09 1021.17 1021.29 1021.37 1021.45 1021.57 1021.65 1021.69
1017.45 1017.57 1017.89 1017.93 1017.93 1017.97 1018.53 1018.41 1018.29 1018.25 1018.37 1018.61 1018.89 1019.09 1019.17 1019.09 1019.13 1019.13 1019.29 1019.45 1019.57 1019.69 1019.81 1019.89 1019.97 1020.05 1020.09 1020.25 1020.25 1020.33 1020.41 1020.57 1020.77 1020.89 1021.09 1021.17 1021.21 1021.21 1021.65 1021.73 1021.69 1021.69
1017.29 1017.49 1017.73 1017.85 1018.13 1018.49 1018.57 1018.45 1018.33 1018.45 1018.61 1018.85 1018.97 1019.01 1019.45 1019.81 1019.69 1019.41 1019.37 1019.53 1019.69 1019.81 1019.97 1020.13 1020.17 1020.33 1020.93 1020.97 1020.93 1020.57 1020.41 1020.53 1020.73 1020.85 1020.89 1020.89 1021.01 1021.13 1021.57 1021.61 1021.57 1021.65
1017.33 1017.57 1017.73 1017.93 1018.09 1018.21 1018.33 1018.41 1018.41 1018.57 1018.81 1019.05 1019.17 1019.13 1019.37 1019.69 1020.01 1019.61 1019.53 1019.53 1019.65 1019.77 1020.05 1020.13 1020.33 1021.09 1021.49 1021.41 1021.29 1021.25 1020.85 1020.53 1020.61 1020.65 1020.73 1020.85 1020.97 1021.09 1021.13 1021.33 1021.45 1021.37
1017.57 1017.77 1017.85 1017.93 1018.09 1018.21 1018.41 1018.41 1018.57 1018.69 1018.77 1018.85 1019.09 1019.41 1019.57 1019.65 1019.73 1019.73 1019.77 1019.89 1019.81 1019.89 1020.09 1020.33 1020.89 1021.81 1021.89 1021.93 1021.85 1021.73 1021.49 1020.85 1020.53 1020.57 1020.69 1020.69 1020.73 1020.81 1020.89 1021.05 1021.05 1021.01
1017.73 1017.89 1017.97 1018.13 1018.33 1018.41 1018.69 1018.93 1019.09 1019.01 1019.13 1019.41 1019.53 1019.65 1019.93 1020.01 1019.97 1019.97 1020.01 1019.89 1019.89 1020.01 1020.17 1020.45 1021.01 1022.13 1021.89 1021.77 1021.81 1021.89 1021.77 1021.41 1020.69 1020.81 1020.69 1020.77 1020.85 1020.85 1020.81 1020.85 1020.85 1020.93
1017.65 1017.85 1017.97 1018.17 1018.33 1018.53 1018.69 1018.89 1019.01 1019.13 1019.33 1019.41 1019.53 1019.81 1019.81 1019.93 1019.93 1020.01 1019.89 1019.85 1019.89 1020.05 1020.25 1020.53 1021.01 1022.01 1022.09 1022.09 1022.13 1022.13 1021.97 1021.61 1020.89 1021.05 1020.97 1020.97 1021.05 1021.05 1021.05 1021.01 1021.05 1021.01
1017.57 1017.73 1017.93 1018.09 1018.17 1018.33 1018.45 1018.57 1018.77 1018.97 1019.05 1019.13 1019.25 1019.49 1019.65 1019.73 1019.85 1019.93 1020.01 1020.01 1020.05 1020.09 1020.33 1020.77 1021.57 1022.21 1022.25 1022.33 1022.33 1022.17 1021.97 1021.49 1020.97 1021.13 1020.97 1021.05 1021.13 1021.17 1021.13 1021.13 1021.09 1021.09
1017.65 1017.85 1017.97 1018.09 1018.17 1018.25 1018.41 1018.57 1018.73 1018.81 1018.89 1018.93 1019.05 1019.13 1019.25 1019.41 1019.65 1019.89 1020.13 1020.21 1020.21 1020.29 1020.49 1020.93 1021.93 1022.49 1022.41 1022.41 1022.37 1022.09 1021.85 1021.13 1020.81 1020.89 1020.89 1020.97 1021.13 1021.17 1021.09 1021.09 1021.13 1021.17
1017.69 1017.85 1018.01 1018.01 1018.13 1018.29 1018.45 1018.65 1018.81 1018.89 1018.89 1018.81 1019.05 1019.21 1019.37 1019.53 1019.73 1019.85 1019.97 1020.17 1020.29 1020.29 1020.45 1020.81 1021.49 1022.53 1022.53 1022.49 1022.37 1022.17 1021.73 1020.69 1020.77 1020.61 1020.89 1021.09 1021.25 1021.29 1021.25 1021.57 1021.77 1021.69
1017.89 1017.97 1018.13 1018.13 1018.21 1018.25 1018.41 1018.65 1018.73 1018.73 1018.85 1018.85 1019.01 1019.17 1019.29 1019.45 1019.61 1019.81 1019.97 1020.05 1020.25 1020.33 1020.37 1020.61 1021.09 1022.09 1022.25 1022.13 1021.97 1021.85 1021.65 1020.93 1020.53 1020.73 1021.05 1021.13 1021.33 1021.41 1021.45 1021.93 1022.69 1022.81
1018.17 1018.05 1018.21 1018.33 1018.37 1018.53 1018.65 1018.73 1018.77 1018.85 1018.81 1018.85 1018.97 1019.09 1019.33 1019.37 1019.45 1019.69 1019.93 1020.09 1020.29 1020.53 1020.93 1020.73 1020.97 1021.89 1022.21 1022.05 1022.01 1021.93 1021.73 1020.85 1020.53 1020.61 1020.97 1021.05 1021.17 1021.45 1021.61 1021.93 1022.65 1023.25
1018.53 1018.61 1018.45 1018.33 1018.29 1018.37 1018.57 1018.57 1018.65 1018.93 1019.05 1018.97 1018.97 1019.01 1019.25 1019.29 1019.49 1019.57 1020.01 1020.13 1020.45 1020.69 1020.89 1020.69 1020.81 1021.29 1022.01 1022.13 1022.05 1021.93 1021.89 1021.33 1020.57 1020.65 1020.93 1021.21 1021.05 1021.13 1021.49 1021.97 1022.49 1023.05
Wind_Speed
7 7 6 6 6 7 7 8 7 7 7 7 7 6 6 5 5 5 5 5 6 6 6 6 6 5 5 5 5 5 6 5 5 5 5 5 5 5 5 6 6 5
7 6 5 5 5 6 6 6 6 6 7 7 7 7 6 6 5 5 5 6 5 6 5 6 6 6 5 5 5 4 5 4 5 3 4 5 4 5 5 5 5 4
6 6 6 6 6 8 7 6 6 6 6 6 8 7 7 6 6 5 5 5 6 6 5 5 5 5 6 5 5 5 5 5 4 4 4 5 4 5 4 4 5 5
6 7 6 6 7 9 8 7 7 6 5 6 7 8 7 6 6 6 6 6 6 6 5 5 4 4 5 5 5 5 5 4 4 3 4 4 4 5 4 4 4 4
7 6 5 5 7 8 8 8 9 8 8 6 7 9 8 8 7 7 6 6 6 6 5 5 5 5 4 4 4 5 4 4 3 2 3 4 4 3 3 3 4 4
7 7 6 6 7 8 7 8 9 9 9 8 8 7 8 9 8 7 7 7 6 6 6 6 5 4 4 4 3 3 3 4 3 2 3 3 3 2 2 3 3 3
7 7 7 6 7 8 8 9 9 9 9 8 7 7 7 8 8 8 8 7 8 7 7 6 6 5 4 3 3 3 3 3 2 2 2 3 3 3 2 2 2 3
7 7 7 7 8 9 8 9 8 8 9 9 8 7 8 7 8 7 7 7 7 7 6 6 6 6 5 3 3 4 3 2 1 2 1 2 1 1 3 1 1 0
7 7 8 9 9 9 10 9 9 8 8 9 8 8 8 8 8 8 8 8 7 7 7 6 6 5 5 4 4 3 2 2 1 1 1 1 2 1 1 3 1 1
8 8 9 9 9 9 10 10 9 8 8 9 9 8 8 8 9 9 9 8 8 8 8 7 6 5 5 4 4 4 2 2 2 2 2 2 1 2 1 2 2 2
8 8 9 9 8 7 10 10 10 9 8 9 8 8 8 8 8 8 8 8 7 8 7 8 7 7 6 5 5 3 2 2 3 3 2 3 3 2 2 3 2 3
7 7 7 8 8 7 9 9 9 9 8 8 8 8 7 7 7 7 7 7 6 6 6 5 4 4 5 4 4 4 4 3 3 3 4 4 3 3 3 3 3 4
6 5 3 2 4 4 6 7 8 8 9 8 8 8 8 8 7 7 7 7 7 6 6 6 5 4 4 3 3 3 4 3 3 3 4 4 4 4 3 3 3 4
7 7 7 7 6 6 5 5 7 7 8 7 7 7 7 7 7 7 6 6 5 5 4 4 4 4 4 3 3 3 3 2 2 2 3 3 3 2 1 1 1 3
6 5 4 4 5 5 6 6 6 7 7 6 4 3 2 4 5 5 5 5 4 4 4 3 3 3 2 2 3 3 2 2 2 3 2 3 4 3 2 2 4 4
4 5 5 4 4 3 6 7 6 6 6 6 6 5 3 3 4 3 4 5 5 4 4 3 2 2 6 7 7 3 1 1 2 3 3 3 3 2 4 4 4 4
4 4 5 6 5 6 5 5 6 5 5 4 4 4 5 5 7 4 3 3 4 4 4 3 3 4 6 5 4 4 3 1 1 1 1 1 2 2 2 4 4 3
3 3 2 2 2 3 3 3 3 4 4 5 5 4 3 4 3 2 1 2 2 4 4 4 5 5 4 4 4 2 4 3 0 0 1 0 0 1 2 2 2 0
3 3 4 3 3 2 2 1 2 3 3 3 4 4 3 3 3 4 4 4 5 6 7 7 6 4 3 6 5 3 1 5 0 1 1 0 1 1 2 1 1 1
4 4 4 3 3 3 5 5 6 5 5 5 5 5 5 4 4 5 6 6 6 7 7 7 6 5 4 4 3 2 3 6 1 1 2 2 1 1 2 2 2 2
4 5 5 4 5 5 5 6 6 6 6 5 6 7 7 7 7 7 6 6 6 6 6 6 4 4 2 4 4 4 6 7 2 1 1 2 1 1 1 1 2 2
6 7 6 6 6 6 6 7 6 6 6 6 6 6 6 6 6 7 7 6 6 6 6 7 4 2 2 3 3 6 8 5 3 2 2 2 2 2 1 1 2 2
5 6 6 7 7 6 6 6 6 7 6 6 6 6 7 6 6 6 6 6 5 5 6 7 6 4 4 5 6 7 8 0 1 2 3 3 3 2 3 5 5 6
4 4 5 5 5 6 6 6 6 5 6 5 6 6 6 6 6 6 5 5 5 5 4 6 6 5 5 5 4 4 7 3 1 2 2 3 3 3 4 5 9 13
3 2 3 4 4 5 4 5 5 5 5 5 5 5 5 6 5 5 5 5 4 4 2 2 7 5 4 4 1 3 5 3 0 1 2 2 3 4 4 6 6 9
4 5 6 6 7 7 7 8 6 6 6 6 6 6 6 6 6 5 6 5 5 6 5 3 6 6 5 3 2 1 4 5 2 1 1 1 2 3 5 6 6 7
Wind_Direction
160 168 167 162 156 151 154 149 144 144 134 136 131 131 128 123 124 110 110 103 97 92 84 78 73 71 71 68 57 66 75 66 59 53 54 51 54 46 51 48 39 36
156 161 163 157 142 143 141 141 141 143 139 137 132 130 128 136 138 133 122 120 115 104 97 88 84 79 73 72 67 69 74 70 69 69 75 62 74 77 62 51 50 34
159 165 162 164 158 151 145 139 144 138 139 141 136 133 135 142 144 139 136 129 121 118 113 103 97 92 90 90 85 78 75 73 68 63 62 66 63 73 70 58 63 48
168 174 174 168 156 153 153 155 153 146 139 152 147 138 142 147 146 142 139 140 133 129 120 116 109 102 94 98 98 90 90 85 78 82 77 71 69 70 67 70 63 59
174 173 174 164 154 154 155 160 161 162 158 163 149 146 147 150 154 152 151 142 134 129 129 128 128 117 121 106 100 104 110 104 110 93 82 80 70 59 61 70 74 78
178 180 173 166 156 154 161 169 172 168 163 165 161 154 152 156 160 159 155 153 146 136 138 136 136 137 128 122 117 107 122 109 103 127 105 105 102 91 91 93 97 83
176 177 171 164 159 161 169 177 177 172 168 163 159 162 157 160 159 162 163 160 153 151 144 143 139 143 143 142 130 120 105 96 125 114 136 101 98 118 113 97 72 87
176 172 167 165 166 169 180 179 179 177 166 162 167 163 165 160 160 160 167 168 157 152 150 147 153 143 151 145 133 130 123 131 138 148 77 98 87 101 102 74 87 83
176 171 170 169 174 179 183 181 180 177 169 165 167 164 169 167 164 170 174 172 166 161 156 155 155 149 149 150 133 141 138 139 160 130 148 136 177 179 196 117 152 177
179 174 175 176 178 187 184 178 176 174 175 174 168 167 168 171 172 178 176 177 174 171 166 166 164 163 165 169 164 154 178 177 184 192 189 211 242 244 225 196 216 211
183 177 182 183 182 188 182 177 174 176 182 182 171 174 175 174 181 182 182 186 186 184 178 178 179 180 178 177 173 184 201 220 231 231 225 230 227 231 228 251 241 263
179 180 183 186 186 193 183 180 175 179 182 185 178 174 169 179 183 182 193 195 193 184 176 183 185 177 182 187 193 185 189 198 215 216 228 240 217 226 232 230 228 237
174 167 158 170 166 191 212 185 182 179 182 183 182 176 173 180 188 191 197 209 211 199 188 182 182 187 200 205 221 206 190 193 203 223 226 228 234 236 247 252 252 239
168 155 152 191 202 191 187 208 187 185 191 184 185 185 186 194 194 196 188 205 200 204 194 182 184 198 203 209 219 204 195 198 204 227 244 227 224 239 235 247 268 264
161 159 177 194 200 184 163 211 198 189 186 173 164 168 207 206 197 193 187 198 195 200 193 189 199 197 194 220 220 212 203 189 208 222 225 234 231 193 133 198 220 237
158 158 181 170 153 191 203 194 190 182 171 151 159 154 115 334 278 206 197 192 196 190 180 180 185 97 41 26 3 344 178 191 191 213 219 220 233 193 169 230 229 226
140 126 141 159 185 180 193 188 183 166 161 158 186 176 153 190 235 222 209 205 207 189 172 170 104 63 38 49 55 355 312 191 179 143 143 176 178 196 179 197 218 217
135 150 175 134 157 158 177 195 191 190 187 182 177 169 169 205 197 197 148 167 162 145 138 110 86 51 30 67 68 49 325 313 301 218 164 189 189 210 172 190 217 199
151 162 168 171 157 142 109 22 259 208 164 138 163 137 131 177 158 156 162 159 148 135 121 110 102 82 57 53 51 54 332 277 100 28 280 358 344 325 334 333 329 316
139 148 148 163 169 159 164 188 197 186 166 160 141 150 149 141 157 151 145 132 121 119 111 103 97 84 84 109 115 139 201 261 72 73 50 45 39 345 314 318 297 292
120 123 122 134 147 156 158 154 155 153 154 151 147 144 143 154 149 133 117 118 121 118 111 99 80 34 78 125 147 174 195 245 90 121 113 119 112 128 289 322 298 286
121 120 125 128 131 133 135 135 138 142 140 144 148 142 137 133 130 129 130 128 127 126 124 114 97 78 116 140 163 197 215 229 135 139 114 97 95 69 41 40 20 346
135 138 136 142 142 144 139 137 140 139 143 148 146 146 146 145 140 141 138 136 139 136 127 125 123 132 162 182 201 229 251 275 111 130 97 100 74 86 82 57 36 9
134 144 152 154 164 163 153 150 157 158 157 165 166 164 163 153 153 149 151 147 145 145 142 138 132 116 147 151 212 262 291 297 148 101 102 104 112 93 88 79 52 27
284 247 196 189 185 167 171 174 173 172 161 172 170 175 166 169 170 160 156 154 148 135 27 205 133 120 113 121 232 273 288 284 318 123 127 124 134 127 116 104 83 56
273 273 270 253 239 224 219 215 186 154 165 194 188 193 179 184 187 176 178 173 155 159 167 195 147 139 125 135 169 232 298 304 306 317 124 149 180 135 139 119 110 98